Orbital Elements at Epoch 2459000.5 (2020-May-31.0) TDB
Reference: JPL 34 (heliocentric ecliptic J2000)
Element | Value | Uncertainty (1-sigma) | Units |
e | .1632729060366135 | 3.2085e-08 | |
a | 3.093094428548998 | 1.3219e-08 | au |
q | 2.588075912554145 | 9.9485e-08 | au |
i | .4728382719831804 | 3.6914e-06 | deg |
node | 328.6693324796805 | 0.00040826 | deg |
peri | 1.348550365218668 | 0.0004084 | deg |
M | 42.27807554974275 | 9.9935e-06 | deg |
tp | 2458767.153707701860 (2019-Oct-10.65370770) | 5.5165e-05 | TDB |
period | 1986.955747985593 5.44 | 1.2737e-05 3.487e-08 | d yr |
n | .1811816898111463 | 1.1615e-09 | deg/d |
Q | 3.598112944543851 | 1.5377e-08 | au |
|
| | Orbit Determination Parameters
Additional Information
|